Bloomington, IL

8:19 PM CST on January 16, 2018 (GMT -0600)
Central Ill Regional

Weather History for KBMI - February, 2012

Change the Weather History Date:

Tuesday, February 14, 2012

  Actual Average Record
Temperature  
Mean Temperature 32 °F -  
Max Temperature 37 °F 33 °F 55 °F (2006)
Min Temperature 26 °F 13 °F 0 °F (2014)
Degree Days  
Heating Degree Days 34    
Moisture  
Dew Point 30 °F    
Average Humidity 96    
Maximum Humidity 100    
Minimum Humidity 79    
Precipitation  
Precipitation 0.00 in - - ()
Sea Level Pressure  
Sea Level Pressure 29.94 in    
Wind  
Wind Speed 10 mph (SW)    
Max Wind Speed 14 mph    
Max Gust Speed -    
Visibility 6 miles    
Events Fog , Snow    
Averages and records for this station are not official NWS values.
T = Trace of Precipitation, MM = Missing Value Source: NWS Daily Summary

Daily Weather History Graph

Daily Weather History Graph

Search for Another Location

Airport or City:

Trip Planner

Search our weather history database for the weather conditions in past years. The results will help you decide how hot, cold, wet, or windy it might be!

Date:

Astronomy

Feb. 14, 2012 Rise Set
Actual Time 6:51 AM CST 5:29 PM CST
Civil Twilight 6:23 AM CST 5:57 PM CST
Nautical Twilight 5:51 AM CST 6:29 PM CST
Astronomical Twilight 5:19 AM CST 7:00 PM CST
Moon 12:36 AM CST (2/14) 10:33 AM CST (2/14)
Length of Visible Light 11h 34m
Length of Day
10h 37m
Waning Gibbous, 50% of the Moon is Illuminated
Feb 14
Waning Gibbous
Feb 21
New
Feb 29
First Quarter
Mar 8
Full
Mar 14
Last Quarter

Hourly Weather History & Observations

Time (CST) Temp. Windchill Dew Point Humidity Pressure Visibility Wind Dir Wind Speed Gust Speed Precip Events Conditions
12:27 AM 26.6 °F 15.7 °F 26.6 °F 100% 29.85 in 2.0 mi South 12.7 mph - 0.00 in   Overcast
12:41 AM 26.6 °F 15.7 °F 26.6 °F 100% 29.84 in 4.0 mi South 12.7 mph - 0.00 in   Overcast
12:56 AM 27.1 °F 16.9 °F 27.1 °F 100% 29.89 in 4.0 mi South 11.5 mph - 0.00 in   Overcast
2:17 AM 28.4 °F 18.5 °F 28.4 °F 100% 29.83 in 3.0 mi SSW 11.5 mph - N/A   Overcast
2:56 AM 28.0 °F 19.3 °F 28.0 °F 100% 29.88 in 4.0 mi SSW 9.2 mph - N/A   Overcast
3:56 AM 28.0 °F 19.3 °F 28.0 °F 100% 29.87 in 4.0 mi SSW 9.2 mph - N/A   Overcast
4:56 AM 28.0 °F 20.0 °F 28.0 °F 100% 29.88 in 5.0 mi SW 8.1 mph - 0.00 in   Overcast
5:20 AM 28.4 °F 20.4 °F 28.4 °F 100% 29.83 in 5.0 mi SW 8.1 mph - N/A   Overcast
5:56 AM 29.1 °F 22.1 °F 29.1 °F 100% 29.89 in 3.0 mi SW 6.9 mph - 0.00 in Snow Light Snow
6:34 AM 28.4 °F 20.4 °F 28.4 °F 100% 29.84 in 2.5 mi SW 8.1 mph - 0.00 in   Overcast
6:56 AM 29.1 °F 21.3 °F 29.1 °F 100% 29.90 in 1.2 mi SW 8.1 mph - 0.00 in   Overcast
7:41 AM 28.4 °F 22.2 °F 28.4 °F 100% 29.85 in 0.8 mi SW 5.8 mph - N/A   Overcast
7:56 AM 29.1 °F 22.1 °F 29.1 °F 100% 29.92 in 0.5 mi SW 6.9 mph - N/A Fog Light Freezing Fog
8:19 AM 28.4 °F 20.4 °F 28.4 °F 100% 29.87 in 1.0 mi SW 8.1 mph - N/A   Overcast
8:56 AM 30.0 °F 23.2 °F 30.0 °F 100% 29.92 in 1.2 mi WSW 6.9 mph - N/A   Overcast
9:13 AM 30.2 °F 22.6 °F 30.2 °F 100% 29.87 in 2.0 mi West 8.1 mph - N/A   Overcast
9:49 AM 30.2 °F 22.6 °F 30.2 °F 100% 29.88 in 4.0 mi WSW 8.1 mph - N/A   Overcast
9:56 AM 30.0 °F 23.2 °F 30.0 °F 100% 29.94 in 4.0 mi West 6.9 mph - N/A   Overcast
11:56 AM 32.0 °F 24.2 °F 32.0 °F 100% 29.95 in 6.0 mi WSW 9.2 mph - N/A   Overcast
12:56 PM 34.0 °F 24.6 °F 32.0 °F 92% 29.94 in 10.0 mi WSW 13.8 mph - N/A   Mostly Cloudy
1:11 PM 35.6 °F 28.0 °F 33.8 °F 93% 29.89 in 10.0 mi WSW 10.4 mph - N/A   Mostly Cloudy
1:56 PM 36.0 °F 28.0 °F 32.0 °F 86% 29.94 in 10.0 mi WSW 11.5 mph - N/A   Mostly Cloudy
2:56 PM 37.9 °F 31.5 °F 32.0 °F 79% 29.95 in 10.0 mi SW 9.2 mph - N/A   Mostly Cloudy
4:56 PM 34.9 °F 26.6 °F 30.0 °F 82% 30.00 in 10.0 mi WSW 11.5 mph - N/A   Overcast
5:56 PM 34.0 °F 26.0 °F 32.0 °F 92% 30.01 in 10.0 mi SW 10.4 mph - N/A   Overcast
6:56 PM 32.9 °F 25.3 °F 31.1 °F 93% 30.04 in 10.0 mi SW 9.2 mph - N/A   Overcast
7:01 PM 33.8 °F 25.8 °F 30.2 °F 87% 29.98 in 10.0 mi SSW 10.4 mph - N/A   Overcast
7:56 PM 32.9 °F 24.7 °F 31.1 °F 93% 30.05 in 10.0 mi SW 10.4 mph - N/A   Overcast
8:56 PM 32.9 °F 24.7 °F 31.1 °F 93% 30.06 in 10.0 mi SSW 10.4 mph - N/A   Overcast
9:56 PM 32.9 °F 23.2 °F 31.1 °F 93% 30.06 in 10.0 mi SSW 13.8 mph - N/A   Overcast
10:56 PM 32.0 °F 23.0 °F 31.1 °F 96% 30.08 in 10.0 mi SSW 11.5 mph - N/A   Overcast
11:19 PM 30.2 °F 21.3 °F 30.2 °F 100% 30.03 in 10.0 mi SSW 10.4 mph - N/A   Scattered Clouds
11:26 PM 30.2 °F 21.9 °F 30.2 °F 100% 30.03 in 10.0 mi SSW 9.2 mph - N/A   Partly Cloudy
11:56 PM 29.1 °F 20.0 °F 29.1 °F 100% 30.09 in 8.0 mi SSW 10.4 mph - N/A   Clear